sat.trackr.live / text

‹ back to catalog

KUIPER-00085

NORAD 64831 · 2025-151R

PAYLOAD ACTIVE UNKNOWN

§ Identity

Operator
Country
US
Launch date
2025-07-16
Launch site
AFETR
Launch vehicle
Mass (kg)
RCS (m²)

External: N2YO · Heavens-Above · Gunter

§ Orbital elements

Epoch: 2026-09-21T20:18:52.804800Z

Period
97.30 min
Inclination
51.9038°
Eccentricity
0.0001034
Mean motion
14.79929008 rev/d
Perigee alt
628.8 km
Apogee alt
630.3 km
Semi-major
7,007.7 km
B*
-2.4169e-5
RAAN
140.7781°
Arg perigee
113.5535°
Mean anomaly
246.5536°
Rev number
6,452

§ Raw data

KUIPER-000851 64831U 25151R   26264.84644450 -.00000405  00000+0 -24169-4 0  99972 64831  51.9038 140.7781 0001034 113.5535 246.5536 14.79929008 64526

JSON: /api/v1/satellites/64831 · /tle

For live sub-satellite position, see the globe view (requires WebGL).

§ Visibility from observer

Set your observer location to see the next 7 days of passes ≥ 10°. The values pass through the URL so the page stays shareable.

No JS? Fill the form by hand. The geolocation button needs JavaScript.